This demonstration page uses our WeatherBlox Daily Observations layout. Learn more.

Left ArrowRight Arrow

39.29038, -76.61219

Hourly Observations for January 17, 2020

Temp ( °F °C ) Dew Point ( °F °C ) Humidity (%) Winds ( mph kmh ) Pressure ( in mb ) Visibility ( mi km ) Precip ( " mm )
12:54 am 00:54 undefined 36 2.2 18 -7.8 48 48 undefined N/A 30.39 1029 N/A 0.00 0.00
1:54 am 01:54 undefined 35 1.7 19 -7.2 52 52 undefined N/A 30.43 1031 N/A 0.00 0.00
2:54 am 02:54 undefined 34 1.1 20 -6.7 56 56 undefined N/A 30.46 1031 N/A 0.00 0.00
3:54 am 03:54 undefined 34 1.1 16 -8.9 48 48 undefined N/A 30.47 1032 N/A 0.00 0.00
4:54 am 04:54 undefined 33 0.6 10 -12.2 38 38 undefined N/A 30.52 1034 N/A 0.00 0.00
5:54 am 05:54 undefined 32 0 10 -12.2 40 40 undefined N/A 30.55 1035 N/A 0.00 0.00
6:54 am 06:54 undefined 31 -0.6 11 -11.7 43 43 undefined N/A 30.60 1036 N/A 0.00 0.00
7:54 am 07:54 undefined 30 -1.1 10 -12.2 43 43 undefined N/A 30.71 1040 N/A 0.00 0.00
8:54 am 08:54 undefined 31 -0.6 10 -12.2 42 42 undefined N/A 30.67 1039 N/A 0.00 0.00
9:54 am 09:54 undefined 32 0 9 -12.8 38 38 undefined N/A 30.69 1039 N/A 0.00 0.00
10:54 am 10:54 undefined 33 0.6 9 -12.8 36 36 undefined N/A 30.73 1041 N/A 0.00 0.00
11:54 am 11:54 undefined 35 1.7 10 -12.2 35 35 undefined N/A 30.73 1041 N/A 0.00 0.00
12:54 pm 12:54 undefined 35 1.7 8 -13.3 32 32 undefined N/A 30.71 1040 N/A 0.00 0.00
1:54 pm 13:54 undefined 35 1.7 7 -13.9 31 31 undefined N/A 30.69 1039 N/A 0.00 0.00
2:54 pm 14:54 undefined 35 1.7 6 -14.4 29 29 undefined N/A 30.68 1039 N/A 0.00 0.00
3:54 pm 15:54 undefined 34 1.1 4 -15.6 28 28 undefined N/A 30.67 1039 N/A 0.00 0.00
4:54 pm 16:54 undefined 34 1.1 5 -15 29 29 undefined N/A 30.68 1039 N/A 0.00 0.00
5:54 pm 17:54 undefined 33 0.6 6 -14.4 32 32 undefined N/A 30.70 1040 N/A 0.00 0.00
6:54 pm 18:54 undefined 32 0 5 -15 32 32 undefined N/A 30.72 1040 N/A 0.00 0.00
7:54 pm 19:54 undefined 31 -0.6 5 -15 33 33 undefined N/A 30.71 1040 N/A 0.00 0.00
8:54 pm 20:54 undefined 30 -1.1 5 -15 34 34 undefined N/A 30.70 1040 N/A 0.00 0.00
9:54 pm 21:54 undefined 30 -1.1 7 -13.9 38 38 undefined N/A 30.70 1040 N/A 0.00 0.00
10:54 pm 22:54 undefined 29 -1.7 7 -13.9 39 39 undefined N/A 30.69 1039 N/A 0.00 0.00
11:54 pm 23:54 undefined 29 -1.7 6 -14.4 38 38 undefined N/A 30.70 1040 N/A 0.00 0.00

Powered by AerisWeather